Location: DARK SKY Beskydy - Park tmavé oblohy, www.darkskybeskydy.cz
(49.4926°N, 18.5016°E)
Time: 00:10:38
(UTC+02:00)

Vanguard 1 - Pass Details

Date: 28 February 2024
Orbit: 653 x 3825 km, 34.2° (Epoch: 21 April)

Event Time Altitude Azimuth Distance (km) Brightness Sun altitude
Rises 01:49:07 0° 278° (W) 7,413 14.3 -42.7°
Enters shadow 01:50:35 - 275° (W) 7,244 14.2 -42.6°
Reaches altitude 10° 01:55:48 10° 265° (W) 6,706 - -42.0°
Maximum altitude 02:10:07 21° 226° (SW) 5,961 - -40.4°
Drops below altitude 10° 02:24:10 10° 186° (S) 6,487 - -38.8°
Exits shadow 02:29:16 - 175° (S) 6,957 14.1 -38.1°
Sets 02:30:39 0° 172° (S) 7,105 14.2 -38.0°
